FDX492 TJBQ-TNCM

Flight info

Callsign FDX492
Flight time 0h 59m
Altitude 19000
Route PEBLO RTE2 SJU RTE6 PALCO DCT GOUDA ULUBA1
Aircraft AT76/M-SDFGIRY/S

Departure

Time 2026-05-07 23:32
Airport Rafael Hernández International Airport (TJBQ)

Arrival

Time 2026-05-08 00:31
Airport Princess Juliana International Airport (TNCM)
Time Latitude Longitude Altitude Speed Heading
2026-05-07 23:04 18.49541 -67.13384 237 ft 0 kts 342°
2026-05-07 23:15 18.49537 -67.13383 237 ft 2 kts 341°
2026-05-07 23:15 18.49536 -67.13382 237 ft 0 kts 341°
2026-05-07 23:19 18.49535 -67.13382 237 ft 1 kts 340°
2026-05-07 23:19 18.49534 -67.13382 237 ft 1 kts 340°
2026-05-07 23:20 18.49508 -67.13370 236 ft 5 kts 336°
2026-05-07 23:20 18.49470 -67.13358 235 ft 1 kts 302°
2026-05-07 23:20 18.49470 -67.13363 239 ft 1 kts 278°
2026-05-07 23:20 18.49466 -67.13376 235 ft 0 kts 247°
2026-05-07 23:21 18.49465 -67.13380 235 ft 3 kts 251°
2026-05-07 23:21 18.49456 -67.13411 236 ft 0 kts 253°
2026-05-07 23:21 18.49453 -67.13420 235 ft 0 kts 254°
2026-05-07 23:22 18.49450 -67.13433 238 ft 6 kts 255°
2026-05-07 23:23 18.49435 -67.13494 237 ft 10 kts 255°
2026-05-07 23:23 18.49417 -67.13560 237 ft 8 kts 250°
2026-05-07 23:23 18.49394 -67.13631 235 ft 11 kts 252°
2026-05-07 23:23 18.49384 -67.13672 236 ft 0 kts 259°
2026-05-07 23:24 18.49382 -67.13677 236 ft 0 kts 250°
2026-05-07 23:24 18.49370 -67.13705 236 ft 8 kts 248°
2026-05-07 23:24 18.49351 -67.13763 236 ft 8 kts 255°
2026-05-07 23:24 18.49344 -67.13790 236 ft 6 kts 255°
2026-05-07 23:25 18.49331 -67.13837 237 ft 5 kts 253°
2026-05-07 23:25 18.49320 -67.13874 237 ft 8 kts 251°
2026-05-07 23:25 18.49297 -67.13945 237 ft 13 kts 251°
2026-05-07 23:25 18.49263 -67.14055 237 ft 11 kts 254°
2026-05-07 23:26 18.49240 -67.14140 238 ft 15 kts 254°
2026-05-07 23:26 18.49209 -67.14246 239 ft 15 kts 252°
2026-05-07 23:26 18.49176 -67.14345 240 ft 14 kts 251°
2026-05-07 23:26 18.49157 -67.14408 240 ft 7 kts 253°
2026-05-07 23:27 18.49141 -67.14459 240 ft 2 kts 252°
2026-05-07 23:27 18.49134 -67.14485 241 ft 8 kts 253°
2026-05-07 23:27 18.49116 -67.14540 241 ft 4 kts 250°
2026-05-07 23:28 18.49091 -67.14562 241 ft 3 kts 193°
2026-05-07 23:28 18.49089 -67.14563 241 ft 0 kts 194°
2026-05-07 23:28 18.49084 -67.14564 241 ft 4 kts 189°
2026-05-07 23:28 18.49044 -67.14552 241 ft 6 kts 160°
2026-05-07 23:29 18.49022 -67.14543 241 ft 4 kts 148°
2026-05-07 23:29 18.49012 -67.14518 241 ft 3 kts 95°
2026-05-07 23:29 18.49016 -67.14496 241 ft 3 kts 71°
2026-05-07 23:29 18.49022 -67.14478 242 ft 2 kts 74°
2026-05-07 23:30 18.49027 -67.14459 242 ft 3 kts 74°
2026-05-07 23:30 18.49029 -67.14451 242 ft 0 kts 75°
2026-05-07 23:30 18.49032 -67.14441 241 ft 8 kts 73°
2026-05-07 23:30 18.49068 -67.14313 239 ft 27 kts 72°
2026-05-07 23:31 18.49139 -67.14076 237 ft 44 kts 73°
2026-05-07 23:31 18.49283 -67.13584 234 ft 93 kts 72°
2026-05-07 23:31 18.49557 -67.12869 410 ft 104 kts 69°
2026-05-07 23:31 18.49794 -67.12182 704 ft 108 kts 76°
2026-05-07 23:32 18.50054 -67.11441 973 ft 108 kts 67°
2026-05-07 23:32 18.50420 -67.10612 916 ft 143 kts 63°
2026-05-07 23:32 18.50714 -67.09531 1028 ft 162 kts 88°
2026-05-07 23:32 18.50468 -67.08325 1291 ft 177 kts 109°
2026-05-07 23:33 18.50013 -67.07074 1826 ft 183 kts 107°
2026-05-07 23:33 18.49644 -67.05791 2336 ft 187 kts 103°
2026-05-07 23:33 18.49372 -67.04439 2839 ft 190 kts 98°
2026-05-07 23:33 18.49201 -67.03061 3341 ft 193 kts 94°
2026-05-07 23:34 18.49116 -67.01639 3837 ft 194 kts 91°
2026-05-07 23:34 18.49083 -67.00207 4356 ft 196 kts 90°
2026-05-07 23:34 18.49057 -66.98761 4880 ft 198 kts 91°
2026-05-07 23:34 18.49028 -66.97318 5386 ft 201 kts 91°
2026-05-07 23:35 18.48999 -66.95834 5899 ft 203 kts 91°
2026-05-07 23:35 18.48969 -66.94337 6422 ft 205 kts 91°
2026-05-07 23:35 18.48930 -66.92816 6910 ft 208 kts 91°
2026-05-07 23:35 18.48889 -66.91308 7392 ft 209 kts 91°
2026-05-07 23:36 18.48845 -66.89773 7892 ft 210 kts 91°
2026-05-07 23:36 18.48802 -66.88220 8409 ft 212 kts 91°
2026-05-07 23:36 18.48756 -66.86663 8919 ft 213 kts 91°
2026-05-07 23:36 18.48708 -66.85092 9452 ft 215 kts 91°
2026-05-07 23:37 18.48656 -66.83515 9979 ft 215 kts 91°
2026-05-07 23:37 18.48580 -66.81957 10457 ft 216 kts 92°
2026-05-07 23:37 18.48499 -66.80368 10945 ft 216 kts 91°
2026-05-07 23:37 18.48418 -66.78779 11442 ft 216 kts 91°
2026-05-07 23:38 18.48344 -66.77196 11950 ft 216 kts 91°
2026-05-07 23:38 18.48275 -66.75635 12459 ft 216 kts 91°
2026-05-07 23:38 18.48208 -66.74052 12984 ft 215 kts 90°
2026-05-07 23:38 18.48144 -66.72483 13514 ft 213 kts 90°
2026-05-07 23:39 18.48074 -66.70922 14028 ft 212 kts 90°
2026-05-07 23:39 18.48009 -66.69399 14505 ft 209 kts 90°
2026-05-07 23:39 18.47946 -66.67879 14986 ft 206 kts 90°
2026-05-07 23:39 18.47892 -66.66387 15484 ft 202 kts 90°
2026-05-07 23:40 18.47903 -66.64913 15912 ft 201 kts 84°
2026-05-07 23:40 18.47891 -66.63355 15891 ft 226 kts 91°
2026-05-07 23:40 18.47767 -66.61654 15899 ft 239 kts 93°
2026-05-07 23:40 18.47629 -66.59879 15902 ft 248 kts 92°
2026-05-07 23:41 18.47498 -66.58036 15904 ft 255 kts 92°
2026-05-07 23:41 18.47385 -66.56148 15906 ft 261 kts 91°
2026-05-07 23:41 18.47287 -66.54219 15905 ft 265 kts 90°
2026-05-07 23:41 18.47201 -66.52290 15905 ft 268 kts 90°
2026-05-07 23:42 18.47125 -66.50308 15905 ft 271 kts 90°
2026-05-07 23:42 18.47055 -66.48306 15906 ft 273 kts 90°
2026-05-07 23:42 18.46966 -66.46298 15904 ft 276 kts 91°
2026-05-07 23:42 18.46870 -66.44306 16021 ft 272 kts 91°
2026-05-07 23:43 18.46774 -66.42338 16212 ft 266 kts 90°
2026-05-07 23:43 18.46682 -66.40407 16406 ft 261 kts 90°
2026-05-07 23:43 18.46591 -66.38505 16598 ft 257 kts 90°
2026-05-07 23:43 18.46499 -66.36631 16800 ft 254 kts 91°
2026-05-07 23:44 18.46411 -66.34783 16993 ft 251 kts 90°
2026-05-07 23:44 18.46320 -66.32971 17190 ft 248 kts 91°
2026-05-07 23:44 18.46232 -66.31161 17391 ft 246 kts 90°
2026-05-07 23:44 18.46145 -66.29367 17595 ft 243 kts 91°
2026-05-07 23:45 18.46053 -66.27614 17798 ft 241 kts 91°
2026-05-07 23:45 18.45957 -66.25848 18000 ft 239 kts 91°
2026-05-07 23:45 18.45868 -66.24115 18223 ft 237 kts 90°
2026-05-07 23:45 18.45789 -66.22391 18438 ft 234 kts 90°
2026-05-07 23:46 18.45716 -66.20684 18638 ft 231 kts 90°
2026-05-07 23:46 18.45642 -66.18997 18813 ft 230 kts 90°
2026-05-07 23:46 18.45563 -66.17314 18900 ft 234 kts 91°
2026-05-07 23:46 18.45476 -66.15584 18941 ft 239 kts 90°
2026-05-07 23:47 18.45388 -66.13817 18964 ft 244 kts 91°
2026-05-07 23:47 18.45301 -66.12019 18974 ft 248 kts 91°
2026-05-07 23:47 18.45212 -66.10185 18980 ft 252 kts 91°
2026-05-07 23:47 18.45122 -66.08348 18983 ft 256 kts 91°
2026-05-07 23:48 18.45028 -66.06463 18985 ft 259 kts 91°
2026-05-07 23:48 18.44934 -66.04561 18993 ft 261 kts 91°
2026-05-07 23:48 18.44893 -66.03720 18992 ft 262 kts 91°
2026-05-07 23:48 18.44804 -66.01943 18994 ft 264 kts 91°
2026-05-07 23:49 18.44710 -66.00003 18994 ft 266 kts 91°
2026-05-07 23:49 18.44584 -65.98056 18993 ft 266 kts 96°
2026-05-07 23:49 18.44193 -65.96130 18993 ft 269 kts 102°
2026-05-07 23:49 18.43721 -65.94229 18995 ft 270 kts 102°
2026-05-07 23:50 18.43258 -65.92302 18991 ft 271 kts 101°
2026-05-07 23:50 18.42849 -65.90381 18993 ft 271 kts 100°
2026-05-07 23:50 18.42459 -65.88425 18994 ft 272 kts 99°
2026-05-07 23:50 18.42065 -65.86472 18993 ft 272 kts 100°
2026-05-07 23:51 18.41674 -65.84545 18987 ft 272 kts 100°
2026-05-07 23:51 18.41280 -65.82620 18991 ft 272 kts 100°
2026-05-07 23:51 18.40883 -65.80666 18990 ft 273 kts 100°
2026-05-07 23:51 18.40482 -65.78713 18992 ft 273 kts 100°
2026-05-07 23:52 18.40083 -65.76753 18989 ft 273 kts 100°
2026-05-07 23:52 18.39689 -65.74820 18988 ft 273 kts 100°
2026-05-07 23:52 18.39288 -65.72861 18987 ft 273 kts 100°
2026-05-07 23:52 18.38887 -65.70898 18985 ft 273 kts 100°
2026-05-07 23:53 18.38484 -65.68933 18986 ft 273 kts 99°
2026-05-07 23:53 18.38085 -65.66980 18981 ft 273 kts 100°
2026-05-07 23:53 18.37690 -65.65042 18982 ft 273 kts 100°
2026-05-07 23:53 18.37285 -65.63084 18980 ft 273 kts 100°
2026-05-07 23:54 18.36884 -65.61122 18980 ft 273 kts 99°
2026-05-07 23:54 18.36490 -65.59193 18981 ft 273 kts 99°
2026-05-07 23:54 18.36089 -65.57235 18982 ft 273 kts 100°
2026-05-07 23:54 18.35686 -65.55280 18980 ft 273 kts 99°
2026-05-07 23:55 18.35285 -65.53325 18979 ft 273 kts 100°
2026-05-07 23:55 18.34880 -65.51364 18981 ft 273 kts 100°
2026-05-07 23:55 18.34484 -65.49431 18981 ft 273 kts 100°
2026-05-07 23:55 18.34081 -65.47471 18982 ft 273 kts 100°
2026-05-07 23:56 18.33677 -65.45514 18982 ft 272 kts 100°
2026-05-07 23:56 18.33275 -65.43560 18979 ft 274 kts 100°
2026-05-07 23:56 18.32912 -65.41790 18982 ft 271 kts 100°
2026-05-07 23:56 18.32512 -65.39861 18979 ft 275 kts 100°
2026-05-07 23:57 18.32109 -65.37881 18979 ft 279 kts 99°
2026-05-07 23:57 18.31714 -65.35858 18983 ft 285 kts 99°
2026-05-07 23:57 18.31314 -65.33799 18984 ft 289 kts 99°
2026-05-07 23:57 18.30888 -65.31713 18983 ft 292 kts 100°
2026-05-07 23:58 18.30458 -65.29632 18983 ft 295 kts 100°
2026-05-07 23:58 18.30016 -65.27498 18982 ft 297 kts 100°
2026-05-07 23:58 18.29601 -65.25479 18987 ft 299 kts 100°
2026-05-07 23:58 18.29142 -65.23289 18986 ft 301 kts 101°
2026-05-07 23:59 18.28662 -65.21135 18988 ft 302 kts 101°
2026-05-07 23:59 18.28179 -65.18982 18989 ft 303 kts 101°
2026-05-07 23:59 18.27694 -65.16818 18989 ft 303 kts 101°
2026-05-07 23:59 18.27209 -65.14656 18989 ft 304 kts 101°
2026-05-08 00:00 18.26730 -65.12516 18992 ft 304 kts 101°
2026-05-08 00:00 18.26243 -65.10345 18991 ft 304 kts 101°
2026-05-08 00:00 18.25756 -65.08170 18989 ft 305 kts 101°
2026-05-08 00:00 18.25268 -65.05994 18990 ft 305 kts 101°
2026-05-08 00:01 18.24783 -65.03837 18993 ft 305 kts 101°
2026-05-08 00:01 18.24292 -65.01654 19000 ft 305 kts 101°
2026-05-08 00:01 18.23804 -64.99482 19008 ft 305 kts 101°
2026-05-08 00:01 18.23316 -64.97306 19006 ft 305 kts 101°
2026-05-08 00:02 18.22832 -64.95155 19003 ft 305 kts 101°
2026-05-08 00:02 18.22341 -64.92976 19002 ft 305 kts 101°
2026-05-08 00:02 18.21849 -64.90795 19005 ft 306 kts 101°
2026-05-08 00:02 18.21357 -64.88616 18997 ft 306 kts 101°
2026-05-08 00:03 18.20866 -64.86437 19001 ft 306 kts 101°
2026-05-08 00:03 18.20381 -64.84283 18997 ft 306 kts 101°
2026-05-08 00:03 18.19887 -64.82100 18996 ft 306 kts 101°
2026-05-08 00:03 18.19395 -64.79920 18993 ft 306 kts 101°
2026-05-08 00:04 18.18903 -64.77742 18995 ft 306 kts 101°
2026-05-08 00:04 18.18412 -64.75593 18993 ft 306 kts 101°
2026-05-08 00:04 18.17920 -64.73408 18995 ft 306 kts 101°
2026-05-08 00:04 18.17427 -64.71224 18996 ft 306 kts 101°
2026-05-08 00:05 18.16933 -64.69044 18990 ft 306 kts 101°
2026-05-08 00:05 18.16446 -64.66890 18992 ft 306 kts 101°
2026-05-08 00:05 18.15951 -64.64710 18988 ft 306 kts 101°
2026-05-08 00:05 18.15454 -64.62526 18993 ft 306 kts 101°
2026-05-08 00:06 18.14959 -64.60344 18992 ft 306 kts 101°
2026-05-08 00:06 18.14465 -64.58163 18989 ft 306 kts 101°
2026-05-08 00:06 18.13975 -64.56011 18991 ft 306 kts 101°
2026-05-08 00:06 18.13477 -64.53831 18990 ft 306 kts 101°
2026-05-08 00:07 18.12981 -64.51637 18993 ft 306 kts 101°
2026-05-08 00:07 18.12492 -64.49486 18989 ft 306 kts 101°
2026-05-08 00:07 18.11993 -64.47303 18992 ft 307 kts 101°
2026-05-08 00:07 18.11495 -64.45120 18994 ft 307 kts 101°
2026-05-08 00:08 18.10998 -64.42936 18995 ft 307 kts 101°
2026-05-08 00:08 18.10505 -64.40772 18996 ft 307 kts 101°
2026-05-08 00:08 18.10004 -64.38584 18990 ft 307 kts 101°
2026-05-08 00:08 18.09502 -64.36393 18992 ft 307 kts 101°
2026-05-08 00:09 18.09009 -64.34231 18992 ft 307 kts 101°
2026-05-08 00:09 18.08507 -64.32045 18991 ft 307 kts 101°
2026-05-08 00:09 18.08006 -64.29854 18993 ft 307 kts 101°
2026-05-08 00:09 18.07504 -64.27669 18995 ft 307 kts 101°
2026-05-08 00:10 18.07005 -64.25479 18998 ft 307 kts 101°
2026-05-08 00:10 18.06509 -64.23313 18995 ft 308 kts 101°
2026-05-08 00:10 18.06006 -64.21125 18997 ft 308 kts 101°
2026-05-08 00:10 18.05504 -64.18939 18955 ft 304 kts 101°
2026-05-08 00:11 18.05009 -64.16815 18805 ft 293 kts 101°
2026-05-08 00:11 18.04530 -64.14790 18646 ft 285 kts 101°
2026-05-08 00:11 18.04053 -64.12778 18419 ft 281 kts 101°
2026-05-08 00:11 18.03587 -64.10793 18175 ft 278 kts 101°
2026-05-08 00:12 18.03136 -64.08815 17914 ft 276 kts 101°
2026-05-08 00:12 18.02688 -64.06857 17659 ft 274 kts 101°
2026-05-08 00:12 18.02251 -64.04935 17407 ft 273 kts 100°
2026-05-08 00:12 18.01811 -64.02996 17158 ft 272 kts 100°
2026-05-08 00:13 18.01370 -64.01065 16905 ft 271 kts 101°
2026-05-08 00:13 18.00929 -63.99142 16652 ft 270 kts 100°
2026-05-08 00:13 18.00487 -63.97223 16412 ft 270 kts 101°
2026-05-08 00:13 18.00049 -63.95334 16175 ft 269 kts 101°
2026-05-08 00:14 17.99605 -63.93421 15929 ft 269 kts 101°
2026-05-08 00:14 17.99162 -63.91504 15683 ft 269 kts 100°
2026-05-08 00:14 17.98722 -63.89591 15444 ft 268 kts 101°
2026-05-08 00:14 17.98290 -63.87710 15210 ft 268 kts 101°
2026-05-08 00:15 17.97849 -63.85804 14977 ft 268 kts 101°
2026-05-08 00:15 17.97405 -63.83891 14742 ft 268 kts 101°
2026-05-08 00:15 17.96963 -63.81980 14511 ft 268 kts 101°
2026-05-08 00:15 17.96529 -63.80101 14284 ft 267 kts 101°
2026-05-08 00:16 17.96088 -63.78205 14051 ft 266 kts 101°
2026-05-08 00:16 17.95650 -63.76325 13867 ft 263 kts 101°
2026-05-08 00:16 17.95224 -63.74491 13779 ft 256 kts 101°
2026-05-08 00:16 17.94806 -63.72692 13734 ft 249 kts 101°
2026-05-08 00:17 17.94399 -63.70940 13718 ft 242 kts 100°
2026-05-08 00:17 17.94005 -63.69246 13711 ft 236 kts 100°
2026-05-08 00:17 17.93624 -63.67597 13736 ft 229 kts 100°
2026-05-08 00:17 17.93435 -63.65986 13592 ft 223 kts 81°
2026-05-08 00:18 17.93704 -63.64395 13527 ft 218 kts 73°
2026-05-08 00:18 17.94073 -63.62868 13515 ft 213 kts 72°
2026-05-08 00:18 17.94430 -63.61385 13520 ft 210 kts 71°
2026-05-08 00:18 17.94786 -63.59905 13519 ft 207 kts 72°
2026-05-08 00:19 17.95140 -63.58443 13521 ft 205 kts 72°
2026-05-08 00:19 17.95469 -63.56999 13521 ft 202 kts 76°
2026-05-08 00:19 17.95682 -63.55538 13520 ft 201 kts 77°
2026-05-08 00:19 17.95880 -63.54104 13519 ft 200 kts 77°
2026-05-08 00:20 17.96100 -63.52664 13516 ft 198 kts 76°
2026-05-08 00:20 17.96362 -63.51223 13520 ft 202 kts 73°
2026-05-08 00:20 17.96676 -63.49789 13522 ft 206 kts 73°
2026-05-08 00:20 17.97017 -63.48309 13528 ft 210 kts 73°
2026-05-08 00:21 17.97308 -63.46782 13532 ft 215 kts 76°
2026-05-08 00:21 17.97583 -63.45220 13528 ft 218 kts 76°
2026-05-08 00:21 17.97866 -63.43636 13413 ft 226 kts 76°
2026-05-08 00:21 17.98154 -63.42008 13013 ft 228 kts 76°
2026-05-08 00:22 17.98437 -63.40398 12561 ft 220 kts 75°
2026-05-08 00:22 17.98733 -63.38839 12054 ft 216 kts 75°
2026-05-08 00:22 17.99040 -63.37306 11434 ft 217 kts 71°
2026-05-08 00:22 17.99868 -63.36014 10824 ft 212 kts 34°
2026-05-08 00:23 18.01084 -63.35187 10226 ft 210 kts 33°
2026-05-08 00:23 18.02007 -63.34035 9595 ft 212 kts 69°
2026-05-08 00:23 18.02060 -63.32491 8949 ft 213 kts 97°
2026-05-08 00:23 18.01826 -63.30947 8293 ft 214 kts 96°
2026-05-08 00:24 18.01613 -63.29404 7671 ft 213 kts 94°
2026-05-08 00:24 18.01507 -63.27861 7053 ft 210 kts 90°
2026-05-08 00:24 18.01471 -63.26334 6444 ft 208 kts 88°
2026-05-08 00:24 18.01586 -63.24827 5794 ft 204 kts 82°
2026-05-08 00:25 18.01768 -63.23371 5151 ft 202 kts 84°
2026-05-08 00:25 18.01835 -63.21895 4503 ft 201 kts 89°
2026-05-08 00:25 18.02027 -63.20510 4123 ft 182 kts 65°
2026-05-08 00:25 18.02498 -63.19351 3771 ft 166 kts 65°
2026-05-08 00:26 18.03001 -63.18319 3547 ft 153 kts 64°
2026-05-08 00:26 18.03289 -63.17261 3105 ft 155 kts 85°
2026-05-08 00:26 18.03312 -63.16149 2885 ft 144 kts 85°
2026-05-08 00:26 18.03393 -63.15056 2524 ft 162 kts 82°
2026-05-08 00:27 18.03487 -63.13906 2502 ft 155 kts 91°
2026-05-08 00:27 18.03212 -63.12808 2374 ft 160 kts 114°
2026-05-08 00:27 18.02550 -63.11843 2162 ft 168 kts 139°
2026-05-08 00:27 18.01409 -63.11399 1800 ft 187 kts 175°
2026-05-08 00:28 18.00128 -63.11673 1721 ft 185 kts 200°
2026-05-08 00:28 17.99045 -63.12254 1790 ft 173 kts 208°
2026-05-08 00:28 17.98090 -63.13075 1502 ft 186 kts 231°
2026-05-08 00:28 17.97665 -63.14354 1390 ft 187 kts 273°
2026-05-08 00:29 17.98179 -63.15443 1486 ft 163 kts 327°
2026-05-08 00:29 17.99184 -63.15867 1403 ft 145 kts 350°
2026-05-08 00:29 18.00159 -63.16121 1423 ft 147 kts 354°
2026-05-08 00:29 18.01153 -63.16152 1477 ft 142 kts 17°
2026-05-08 00:30 18.02064 -63.15788 1387 ft 129 kts 35°
2026-05-08 00:30 18.02643 -63.15279 1188 ft 112 kts 47°
2026-05-08 00:30 18.03140 -63.14669 911 ft 104 kts 57°
2026-05-08 00:30 18.03456 -63.13963 726 ft 109 kts 69°
2026-05-08 00:31 18.03706 -63.13257 580 ft 96 kts 70°
2026-05-08 00:31 18.03858 -63.12552 285 ft 101 kts 81°
2026-05-08 00:31 18.03953 -63.11837 54 ft 97 kts 79°
2026-05-08 00:31 18.04034 -63.11308 24 ft 31 kts 83°
2026-05-08 00:32 18.04044 -63.11223 26 ft 6 kts 80°
2026-05-08 00:32 18.04064 -63.11179 25 ft 9 kts 43°
2026-05-08 00:32 18.04088 -63.11160 26 ft 3 kts
2026-05-08 00:32 18.04110 -63.11163 24 ft 4 kts 354°
2026-05-08 00:33 18.04135 -63.11166 26 ft 3 kts 351°
2026-05-08 00:33 18.04141 -63.11170 25 ft 0 kts 315°
2026-05-08 00:33 18.04145 -63.11177 25 ft 3 kts 291°
2026-05-08 00:34 18.04144 -63.11208 25 ft 7 kts 266°
2026-05-08 00:34 18.04143 -63.11226 25 ft 1 kts 264°
2026-05-08 00:34 18.04138 -63.11258 26 ft 8 kts 261°
2026-05-08 00:34 18.04165 -63.11303 25 ft 7 kts 347°
2026-05-08 00:35 18.04211 -63.11312 25 ft 6 kts 339°
2026-05-08 00:35 18.04237 -63.11371 25 ft 13 kts 267°
2026-05-08 00:35 18.04227 -63.11440 27 ft 16 kts 262°
2026-05-08 00:35 18.04147 -63.11571 27 ft 17 kts 232°
2026-05-08 00:36 18.04083 -63.11654 25 ft 14 kts 232°
2026-05-08 00:36 18.04059 -63.11717 24 ft 14 kts 259°
2026-05-08 00:36 18.04049 -63.11796 24 ft 5 kts 264°
2026-05-08 00:36 18.04061 -63.11808 27 ft 3 kts 327°
2026-05-08 00:37 18.04072 -63.11819 24 ft 4 kts 309°
2026-05-08 00:37 18.04087 -63.11834 25 ft 2 kts 321°
2026-05-08 00:37 18.04090 -63.11836 25 ft 0 kts 321°